Regional Weather Roundup
Issued by NWS Goodland, KS

Home | Current Version | Previous Version | Text Only | Print | Product List | Glossary Off
Versions: 1 2 3 4 5 6 7 8 9 10 11 12 13 14 15 16 17 18 19 20 21 22 23 24 25 26 27 28 29 30 31 32 33 34 35 36 37 38 39 40 41 42 43 44 45 46 47 48 49 50

000
ASUS43 KGLD 262308
RWRGLD

GOODLAND FORECAST AREA HOURLY WEATHER ROUNDUP
NATIONAL WEATHER SERVICE GOODLAND KS
400 PM MST SUN FEB 26 2017

...OFFICIAL OBSERVATIONS...

CITY           SKY/WX    TMP DP  RH WIND       PRES   REMARKS
GOODLAND KS    SUNNY     44   5  20 S9        29.84S
HILL CITY KS   SUNNY     48   7  18 NW12      29.92R
IMPERIAL NEB   SUNNY     40  12  32 NE6       29.87S
MCCOOK NEB     SUNNY     43   9  24 N9        29.90R
AKRON CO       SUNNY     42   6  22 S13       29.78S
BURLINGTON CO  SUNNY     45   7  21 SE13      29.82R
LIMON CO       SUNNY     40  -4  15 S9        29.76S
$$

...UNOFFICIAL OBSERVATIONS...

CITY           SKY/WX    TMP DP  RH WIND       PRES   REMARKS
LENORA KS        N/A     44  32  63 N7          N/A
SHARON SPRINGS   N/A     47  11  23 CALM        N/A
TRENTON NEB      N/A     39  32  76 N8          N/A
KIT CARSON CO    N/A     47   8  20 MISG        N/A
YUMA CO        FAIR      41  12  30 E10       29.80F
$$




USA.gov is the U.S. government's official web portal to all federal, state and local government web resources and services.